Simultaneous Nadir Overpasses (SNOs) Predictions

Prediction of SNOs between GOES-17 and METOP-C Satellite Orbit:

Table of predicted SNOs for the next 14.0 days since TLE Epoch: 5/29/2020
Index Date Time (GOES-17) GOES-17 Lat,Lon METOP-C Lat,Lon Distance(km) Time Diff (sec)
1 05/30/2020 06:49:07 -0.02,-137.20 -0.42,-138.99 204.87 80
2 05/31/2020 06:25:48 -0.02,-137.19 0.68,-134.00 363.87 80
3 06/01/2020 18:44:39 0.02,-137.19 0.34,-138.56 156.13 80
4 06/02/2020 18:26:40 0.02,-137.18 -0.76,-133.56 412.28 80
5 06/04/2020 06:45:41 -0.01,-137.17 -0.24,-138.16 113.58 80
6 06/05/2020 06:22:22 -0.01,-137.16 0.87,-133.17 454.25 80
7 06/06/2020 18:41:14 0.00,-137.14 0.11,-137.74 67.38 80
8 06/09/2020 06:42:15 0.00,-137.10 -0.05,-137.33 26.56 80
9 06/11/2020 18:40:27 -0.00,-137.06 -0.01,-136.89 18.83 80




NCC Satellite Simultaneous Nadir Overpasses (SNOs) Prediction Service
